Wetterdaten: Dienstag, 27.01.2015
Datum Zeit Temp. A. Feuchte A. Luftdruck Regen Wind Richtung Richtung Sonnenschein ET UV Solar Taupunkt Windchill Windben Empfang
27.01.2015 00:00 -1,9 C 75 % 1018,3 hPa 0,0 l/m 0,0 km/h (0 Bft) S-SW 210 0 min 0,000 mm 0,0 UV-I 0 W/m -5,7 C -1,9 C 0,0 km/h (0 Bft) 0,00 %
27.01.2015 00:15 -1,9 C 77 % 1017,9 hPa 0,0 l/m 0,0 km/h (0 Bft) SW 234 0 min 0,000 mm 0,0 UV-I 0 W/m -5,4 C -1,9 C 0,0 km/h (0 Bft) 0,00 %
27.01.2015 00:30 -2,1 C 79 % 1017,7 hPa 0,0 l/m 0,0 km/h (0 Bft) SW 216 0 min 0,000 mm 0,0 UV-I 0 W/m -5,2 C -2,1 C 0,0 km/h (0 Bft) 0,00 %
27.01.2015 00:45 -2,2 C 80 % 1017,4 hPa 0,0 l/m 0,0 km/h (0 Bft) SW 222 0 min 0,000 mm 0,0 UV-I 0 W/m -5,2 C -2,2 C 0,0 km/h (0 Bft) 0,00 %
27.01.2015 01:00 -2,3 C 81 % 1017,0 hPa 0,0 l/m 0,0 km/h (0 Bft) W-SW 252 0 min 0,000 mm 0,0 UV-I 0 W/m -5,1 C -2,3 C 0,0 km/h (0 Bft) 0,00 %
27.01.2015 01:15 -2,3 C 82 % 1016,7 hPa 0,0 l/m 0,0 km/h (0 Bft) S-SW 209 0 min 0,000 mm 0,0 UV-I 0 W/m -4,9 C -2,3 C 0,0 km/h (0 Bft) 0,00 %
27.01.2015 01:30 -2,3 C 82 % 1016,5 hPa 0,0 l/m 0,0 km/h (0 Bft) SW 234 0 min 0,000 mm 0,0 UV-I 0 W/m -4,9 C -2,3 C 0,0 km/h (0 Bft) 0,00 %
27.01.2015 01:45 -2,3 C 82 % 1016,4 hPa 0,0 l/m 0,0 km/h (0 Bft) S 177 0 min 0,000 mm 0,0 UV-I 0 W/m -4,9 C -2,3 C 0,0 km/h (0 Bft) 0,00 %
27.01.2015 02:00 -2,2 C 82 % 1016,1 hPa 0,0 l/m 0,0 km/h (0 Bft) SW 224 0 min 0,000 mm 0,0 UV-I 0 W/m -4,8 C -2,2 C 0,0 km/h (0 Bft) 0,00 %
27.01.2015 02:15 -2,2 C 82 % 1016,2 hPa 0,0 l/m 0,0 km/h (0 Bft) S-SW 212 0 min 0,000 mm 0,0 UV-I 0 W/m -4,8 C -2,2 C 0,0 km/h (0 Bft) 0,00 %
27.01.2015 02:30 -2,1 C 82 % 1015,8 hPa 0,0 l/m 0,0 km/h (0 Bft) S-SW 211 0 min 0,000 mm 0,0 UV-I 0 W/m -4,7 C -2,1 C 0,0 km/h (0 Bft) 0,00 %
27.01.2015 02:45 -2,0 C 82 % 1015,7 hPa 0,0 l/m 0,0 km/h (0 Bft) S-SW 200 0 min 0,000 mm 0,0 UV-I 0 W/m -4,7 C -2,0 C 0,0 km/h (0 Bft) 0,00 %
27.01.2015 03:00 -1,8 C 83 % 1015,6 hPa 0,0 l/m 0,0 km/h (0 Bft) SW 216 0 min 0,000 mm 0,0 UV-I 0 W/m -4,3 C -1,8 C 0,0 km/h (0 Bft) 0,00 %
27.01.2015 03:15 -1,6 C 83 % 1015,4 hPa 0,0 l/m 0,0 km/h (0 Bft) SW 233 0 min 0,000 mm 0,0 UV-I 0 W/m -4,1 C -1,6 C 0,0 km/h (0 Bft) 0,00 %
27.01.2015 03:30 -1,5 C 82 % 1015,2 hPa 0,0 l/m 0,0 km/h (0 Bft) S-SW 201 0 min 0,000 mm 0,0 UV-I 0 W/m -4,2 C -1,5 C 0,0 km/h (0 Bft) 0,00 %
27.01.2015 03:45 -1,4 C 82 % 1015,3 hPa 0,0 l/m 0,0 km/h (0 Bft) SW 216 0 min 0,000 mm 0,0 UV-I 0 W/m -4,1 C -1,4 C 0,0 km/h (0 Bft) 0,00 %
27.01.2015 04:00 -1,2 C 83 % 1015,2 hPa 0,0 l/m 0,0 km/h (0 Bft) N-NW 343 0 min 0,000 mm 0,0 UV-I 0 W/m -3,7 C -1,2 C 0,0 km/h (0 Bft) 0,00 %
27.01.2015 04:15 -0,9 C 82 % 1015,0 hPa 0,0 l/m 2,2 km/h (1 Bft) O 89 0 min 0,000 mm 0,0 UV-I 0 W/m -3,6 C -0,9 C 4,0 km/h (1 Bft) 0,00 %
27.01.2015 04:30 -0,6 C 82 % 1015,3 hPa 0,0 l/m 0,0 km/h (0 Bft) W-SW 237 0 min 0,000 mm 0,0 UV-I 0 W/m -3,3 C -0,6 C 0,0 km/h (0 Bft) 0,00 %
27.01.2015 04:45 -0,5 C 81 % 1015,2 hPa 0,0 l/m 0,0 km/h (0 Bft) S-SW 208 0 min 0,000 mm 0,0 UV-I 0 W/m -3,3 C -0,5 C 0,0 km/h (0 Bft) 0,00 %
27.01.2015 05:00 -0,3 C 82 % 1015,2 hPa 0,0 l/m 0,0 km/h (0 Bft) NO 45 0 min 0,000 mm 0,0 UV-I 0 W/m -3,0 C -0,3 C 0,0 km/h (0 Bft) 0,00 %
27.01.2015 05:15 -0,2 C 82 % 1015,4 hPa 0,0 l/m 0,0 km/h (0 Bft) NO 54 0 min 0,000 mm 0,0 UV-I 0 W/m -2,9 C -0,2 C 0,0 km/h (0 Bft) 0,00 %
27.01.2015 05:30 -0,1 C 82 % 1015,4 hPa 0,0 l/m 0,0 km/h (0 Bft) W-SW 255 0 min 0,000 mm 0,0 UV-I 0 W/m -2,8 C -0,1 C 0,0 km/h (0 Bft) 0,00 %
27.01.2015 05:45 -0,1 C 82 % 1015,4 hPa 0,0 l/m 0,0 km/h (0 Bft) SW 229 0 min 0,000 mm 0,0 UV-I 0 W/m -2,8 C -0,1 C 0,0 km/h (0 Bft) 0,00 %
27.01.2015 06:00 -0,1 C 82 % 1015,7 hPa 0,0 l/m 0,0 km/h (0 Bft) SW 226 0 min 0,000 mm 0,0 UV-I 0 W/m -2,8 C -0,1 C 0,0 km/h (0 Bft) 0,00 %
27.01.2015 06:15 -0,1 C 82 % 1015,6 hPa 0,0 l/m 0,0 km/h (0 Bft) O-NO 64 0 min 0,000 mm 0,0 UV-I 0 W/m -2,8 C -0,1 C 0,0 km/h (0 Bft) 0,00 %
27.01.2015 06:30 -0,1 C 82 % 1015,8 hPa 0,0 l/m 0,0 km/h (0 Bft) SW 235 0 min 0,000 mm 0,0 UV-I 0 W/m -2,8 C -0,1 C 0,0 km/h (0 Bft) 0,00 %
27.01.2015 06:45 -0,1 C 82 % 1016,1 hPa 0,0 l/m 0,0 km/h (0 Bft) O-SO 118 0 min 0,000 mm 0,0 UV-I 0 W/m -2,8 C -0,1 C 0,0 km/h (0 Bft) 0,00 %
27.01.2015 07:00 -0,1 C 82 % 1016,2 hPa 0,0 l/m 0,0 km/h (0 Bft) SW 216 0 min 0,000 mm 0,0 UV-I 0 W/m -2,8 C -0,1 C 0,0 km/h (0 Bft) 0,00 %
27.01.2015 07:15 0,0 C 82 % 1016,4 hPa 0,0 l/m 0,0 km/h (0 Bft) W-SW 250 0 min 0,000 mm 0,0 UV-I 0 W/m -2,7 C 0,0 C 0,0 km/h (0 Bft) 0,00 %
27.01.2015 07:30 0,0 C 82 % 1016,7 hPa 0,0 l/m 0,0 km/h (0 Bft) W-NW 294 0 min 0,000 mm 0,0 UV-I 0 W/m -2,7 C 0,0 C 0,0 km/h (0 Bft) 0,00 %
27.01.2015 07:45 0,1 C 82 % 1017,0 hPa 0,0 l/m 0,0 km/h (0 Bft) W-SW 255 0 min 0,000 mm 0,0 UV-I 0 W/m -2,6 C 0,1 C 0,0 km/h (0 Bft) 0,00 %
27.01.2015 08:00 0,2 C 81 % 1017,0 hPa 0,0 l/m 0,4 km/h (0 Bft) W-SW 250 0 min 0,000 mm 0,0 UV-I 0 W/m -2,7 C 0,2 C 4,0 km/h (1 Bft) 0,00 %
27.01.2015 08:15 0,3 C 81 % 1017,0 hPa 0,0 l/m 0,0 km/h (0 Bft) SW 223 0 min 0,000 mm 0,0 UV-I 4 W/m -2,6 C 0,3 C 0,0 km/h (0 Bft) 0,00 %
27.01.2015 08:30 0,4 C 80 % 1016,9 hPa 0,0 l/m 0,0 km/h (0 Bft) W-SW 239 0 min 0,000 mm 0,0 UV-I 20 W/m -2,6 C 0,4 C 0,0 km/h (0 Bft) 0,00 %
27.01.2015 08:45 0,5 C 79 % 1017,1 hPa 0,0 l/m 0,0 km/h (0 Bft) W-SW 251 0 min 0,000 mm 0,0 UV-I 38 W/m -2,7 C 0,5 C 0,0 km/h (0 Bft) 0,00 %
27.01.2015 09:00 0,6 C 78 % 1017,3 hPa 0,0 l/m 0,0 km/h (0 Bft) SW 223 0 min 0,000 mm 0,0 UV-I 30 W/m -2,8 C 0,6 C 0,0 km/h (0 Bft) 0,00 %
27.01.2015 09:15 0,7 C 79 % 1017,3 hPa 0,0 l/m 2,9 km/h (1 Bft) W-SW 256 0 min 0,000 mm 0,0 UV-I 65 W/m -2,5 C 0,7 C 7,9 km/h (2 Bft) 0,00 %
27.01.2015 09:30 0,7 C 79 % 1017,1 hPa 0,0 l/m 6,5 km/h (2 Bft) W-SW 256 0 min 0,000 mm 0,0 UV-I 57 W/m -2,5 C 0,6 C 11,9 km/h (2 Bft) 0,00 %
27.01.2015 09:45 0,7 C 79 % 1017,1 hPa 0,0 l/m 0,7 km/h (0 Bft) SW 228 0 min 0,000 mm 1,0 UV-I 69 W/m -2,5 C 0,7 C 4,0 km/h (1 Bft) 0,00 %
27.01.2015 10:00 0,8 C 79 % 1017,1 hPa 0,0 l/m 0,7 km/h (0 Bft) W-SW 253 0 min 0,000 mm 1,0 UV-I 90 W/m -2,4 C 0,8 C 4,0 km/h (1 Bft) 0,00 %
27.01.2015 10:15 0,9 C 79 % 1017,2 hPa 0,0 l/m 5,4 km/h (1 Bft) W-SW 256 0 min 0,000 mm 1,0 UV-I 113 W/m -2,3 C 0,9 C 7,9 km/h (2 Bft) 0,00 %
27.01.2015 10:30 1,3 C 77 % 1017,4 hPa 0,0 l/m 0,0 km/h (0 Bft) SO 124 15 min 0,000 mm 1,0 UV-I 206 W/m -2,3 C 1,3 C 0,0 km/h (0 Bft) 0,00 %
27.01.2015 10:45 1,3 C 76 % 1017,5 hPa 0,0 l/m 6,5 km/h (2 Bft) SW 232 0 min 0,000 mm 1,0 UV-I 109 W/m -2,5 C 1,2 C 7,9 km/h (2 Bft) 0,00 %
27.01.2015 11:00 0,9 C 77 % 1017,5 hPa 0,0 l/m 0,4 km/h (0 Bft) S-SW 197 0 min 0,000 mm 1,0 UV-I 75 W/m -2,7 C 0,9 C 4,0 km/h (1 Bft) 0,00 %
27.01.2015 11:15 1,1 C 76 % 1017,4 hPa 0,0 l/m 4,3 km/h (1 Bft) SW 229 0 min 0,000 mm 1,0 UV-I 109 W/m -2,6 C 1,1 C 7,9 km/h (2 Bft) 0,00 %
27.01.2015 11:30 1,3 C 74 % 1017,5 hPa 0,0 l/m 0,0 km/h (0 Bft) SW 226 0 min 0,000 mm 1,0 UV-I 139 W/m -2,8 C 1,3 C 0,0 km/h (0 Bft) 0,00 %
27.01.2015 11:45 1,4 C 74 % 1017,3 hPa 0,0 l/m 4,0 km/h (1 Bft) W-SW 255 0 min 0,000 mm 2,0 UV-I 133 W/m -2,7 C 1,4 C 7,9 km/h (2 Bft) 0,00 %
27.01.2015 12:00 1,4 C 73 % 1017,3 hPa 0,0 l/m 2,2 km/h (1 Bft) W-SW 250 0 min 0,000 mm 2,0 UV-I 200 W/m -2,9 C 1,4 C 4,0 km/h (1 Bft) 0,00 %
27.01.2015 12:15 1,3 C 73 % 1017,3 hPa 0,0 l/m 1,8 km/h (1 Bft) SW 226 0 min 0,000 mm 1,0 UV-I 205 W/m -3,0 C 1,3 C 4,0 km/h (1 Bft) 0,00 %
27.01.2015 12:30 1,1 C 73 % 1017,3 hPa 0,0 l/m 3,2 km/h (1 Bft) W-SW 256 0 min 0,000 mm 1,0 UV-I 108 W/m -3,2 C 1,1 C 4,0 km/h (1 Bft) 0,00 %
27.01.2015 12:45 1,4 C 71 % 1017,3 hPa 0,0 l/m 0,4 km/h (0 Bft) W-SW 255 0 min 0,000 mm 1,0 UV-I 149 W/m -3,3 C 1,4 C 4,0 km/h (1 Bft) 0,00 %
27.01.2015 13:00 1,9 C 69 % 1017,0 hPa 0,0 l/m 2,2 km/h (1 Bft) SW 229 15 min 0,000 mm 2,0 UV-I 237 W/m -3,2 C 1,9 C 4,0 km/h (1 Bft) 0,00 %
27.01.2015 13:15 1,6 C 69 % 1016,8 hPa 0,0 l/m 1,8 km/h (1 Bft) W-SW 256 0 min 0,000 mm 2,0 UV-I 151 W/m -3,5 C 1,6 C 4,0 km/h (1 Bft) 0,00 %
27.01.2015 13:30 1,9 C 68 % 1016,7 hPa 0,0 l/m 3,2 km/h (1 Bft) W-SW 254 0 min 0,000 mm 2,0 UV-I 192 W/m -3,4 C 1,9 C 4,0 km/h (1 Bft) 0,00 %
27.01.2015 13:45 2,4 C 67 % 1016,9 hPa 0,0 l/m 6,8 km/h (2 Bft) W-SW 256 15 min 0,000 mm 2,0 UV-I 295 W/m -3,1 C 2,0 C 7,9 km/h (2 Bft) 0,00 %
27.01.2015 14:00 2,3 C 68 % 1016,8 hPa 0,0 l/m 5,4 km/h (1 Bft) W-SW 255 15 min 0,000 mm 2,0 UV-I 265 W/m -3,0 C 2,3 C 7,9 km/h (2 Bft) 0,00 %
27.01.2015 14:15 1,9 C 69 % 1017,0 hPa 0,0 l/m 7,9 km/h (2 Bft) W-SW 251 0 min 0,000 mm 1,0 UV-I 133 W/m -3,2 C 0,4 C 11,9 km/h (2 Bft) 0,00 %
27.01.2015 14:30 1,4 C 70 % 1017,0 hPa 0,0 l/m 0,4 km/h (0 Bft) W-SW 255 0 min 0,000 mm 1,0 UV-I 88 W/m -3,5 C 1,4 C 4,0 km/h (1 Bft) 0,00 %
27.01.2015 14:45 1,4 C 71 % 1017,0 hPa 0,0 l/m 4,3 km/h (1 Bft) W-SW 256 0 min 0,000 mm 1,0 UV-I 83 W/m -3,3 C 1,4 C 7,9 km/h (2 Bft) 0,00 %
27.01.2015 15:00 1,3 C 71 % 1017,5 hPa 0,0 l/m 0,4 km/h (0 Bft) S 180 0 min 0,000 mm 1,0 UV-I 64 W/m -3,4 C 1,3 C 4,0 km/h (1 Bft) 0,00 %
27.01.2015 15:15 1,3 C 71 % 1017,5 hPa 0,0 l/m 5,8 km/h (2 Bft) W-NW 295 0 min 0,000 mm 1,0 UV-I 76 W/m -3,4 C 1,3 C 7,9 km/h (2 Bft) 0,00 %
27.01.2015 15:30 1,1 C 71 % 1017,4 hPa 0,0 l/m 1,8 km/h (1 Bft) SW 228 0 min 0,000 mm 1,0 UV-I 35 W/m -3,6 C 1,1 C 4,0 km/h (1 Bft) 0,00 %
27.01.2015 15:45 0,9 C 73 % 1017,6 hPa 0,0 l/m 2,2 km/h (1 Bft) W-SW 250 0 min 0,000 mm 1,0 UV-I 31 W/m -3,4 C 0,9 C 4,0 km/h (1 Bft) 0,00 %
27.01.2015 16:00 0,7 C 74 % 1017,6 hPa 0,0 l/m 6,8 km/h (2 Bft) W-SW 256 0 min 0,000 mm 0,0 UV-I 39 W/m -3,4 C 0,3 C 11,9 km/h (2 Bft) 0,00 %
27.01.2015 16:15 0,6 C 75 % 1017,7 hPa 0,0 l/m 3,2 km/h (1 Bft) SW 227 0 min 0,000 mm 0,0 UV-I 22 W/m -3,3 C 0,6 C 7,9 km/h (2 Bft) 0,00 %
27.01.2015 16:30 0,4 C 78 % 1017,8 hPa 0,0 l/m 0,7 km/h (0 Bft) W-NW 303 0 min 0,000 mm 0,0 UV-I 0 W/m -3,0 C 0,4 C 4,0 km/h (1 Bft) 0,00 %
27.01.2015 16:45 0,0 C 80 % 1017,8 hPa 0,0 l/m 0,0 km/h (0 Bft) S 188 0 min 0,000 mm 0,0 UV-I 0 W/m -3,0 C 0,0 C 0,0 km/h (0 Bft) 0,00 %
27.01.2015 17:00 -0,1 C 81 % 1017,8 hPa 0,0 l/m 0,7 km/h (0 Bft) W-SW 255 0 min 0,000 mm 0,0 UV-I 0 W/m -3,0 C -0,1 C 4,0 km/h (1 Bft) 0,00 %
27.01.2015 17:15 -0,2 C 82 % 1017,8 hPa 0,0 l/m 0,0 km/h (0 Bft) S 180 0 min 0,000 mm 0,0 UV-I 0 W/m -2,9 C -0,2 C 0,0 km/h (0 Bft) 0,00 %
27.01.2015 17:30 0,0 C 82 % 1018,4 hPa 0,0 l/m 0,4 km/h (0 Bft) W-SW 253 0 min 0,000 mm 0,0 UV-I 0 W/m -2,7 C 0,0 C 4,0 km/h (1 Bft) 0,00 %
27.01.2015 17:45 0,0 C 81 % 1018,4 hPa 0,0 l/m 0,0 km/h (0 Bft) SW 222 0 min 0,000 mm 0,0 UV-I 0 W/m -2,9 C 0,0 C 0,0 km/h (0 Bft) 0,00 %
27.01.2015 18:00 0,0 C 81 % 1018,7 hPa 0,0 l/m 0,0 km/h (0 Bft) SW 221 0 min 0,000 mm 0,0 UV-I 0 W/m -2,9 C 0,0 C 0,0 km/h (0 Bft) 0,00 %
27.01.2015 18:15 0,0 C 80 % 1018,5 hPa 0,0 l/m 0,0 km/h (0 Bft) SW 214 0 min 0,000 mm 0,0 UV-I 0 W/m -3,0 C 0,0 C 0,0 km/h (0 Bft) 0,00 %
27.01.2015 18:30 0,1 C 80 % 1018,6 hPa 0,0 l/m 0,7 km/h (0 Bft) S-SW 208 0 min 0,000 mm 0,0 UV-I 0 W/m -2,9 C 0,1 C 4,0 km/h (1 Bft) 0,00 %
27.01.2015 18:45 0,1 C 80 % 1018,8 hPa 0,0 l/m 1,4 km/h (1 Bft) W-SW 255 0 min 0,000 mm 0,0 UV-I 0 W/m -2,9 C 0,1 C 4,0 km/h (1 Bft) 0,00 %
27.01.2015 19:00 0,0 C 80 % 1018,8 hPa 0,0 l/m 0,0 km/h (0 Bft) W-SW 242 0 min 0,000 mm 0,0 UV-I 0 W/m -3,0 C 0,0 C 0,0 km/h (0 Bft) 0,00 %
27.01.2015 19:15 -0,1 C 80 % 1019,0 hPa 0,0 l/m 0,4 km/h (0 Bft) SW 234 0 min 0,000 mm 0,0 UV-I 0 W/m -3,1 C -0,1 C 4,0 km/h (1 Bft) 0,00 %
27.01.2015 19:30 0,0 C 80 % 1018,9 hPa 0,0 l/m 1,4 km/h (1 Bft) W-SW 250 0 min 0,000 mm 0,0 UV-I 0 W/m -3,0 C 0,0 C 4,0 km/h (1 Bft) 0,00 %
27.01.2015 19:45 0,0 C 80 % 1018,9 hPa 0,0 l/m 1,8 km/h (1 Bft) SW 219 0 min 0,000 mm 0,0 UV-I 0 W/m -3,0 C 0,0 C 4,0 km/h (1 Bft) 0,00 %
27.01.2015 20:00 0,0 C 79 % 1018,8 hPa 0,0 l/m 5,8 km/h (2 Bft) W-SW 256 0 min 0,000 mm 0,0 UV-I 0 W/m -3,2 C 0,0 C 7,9 km/h (2 Bft) 0,00 %
27.01.2015 20:15 0,0 C 78 % 1019,5 hPa 0,0 l/m 1,4 km/h (1 Bft) W-NW 282 0 min 0,000 mm 0,0 UV-I 0 W/m -3,4 C 0,0 C 4,0 km/h (1 Bft) 0,00 %
27.01.2015 20:30 0,1 C 77 % 1019,4 hPa 0,0 l/m 0,4 km/h (0 Bft) W-SW 255 0 min 0,000 mm 0,0 UV-I 0 W/m -3,4 C 0,1 C 4,0 km/h (1 Bft) 0,00 %
27.01.2015 20:45 -0,1 C 77 % 1019,5 hPa 0,0 l/m 1,4 km/h (1 Bft) W-SW 254 0 min 0,000 mm 0,0 UV-I 0 W/m -3,6 C -0,1 C 4,0 km/h (1 Bft) 0,00 %
27.01.2015 21:00 0,0 C 77 % 1019,8 hPa 0,0 l/m 0,0 km/h (0 Bft) SW 235 0 min 0,000 mm 0,0 UV-I 0 W/m -3,5 C 0,0 C 0,0 km/h (0 Bft) 0,00 %
27.01.2015 21:15 0,1 C 78 % 1019,8 hPa 0,0 l/m 0,0 km/h (0 Bft) S-SW 201 0 min 0,000 mm 0,0 UV-I 0 W/m -3,3 C 0,1 C 0,0 km/h (0 Bft) 0,00 %
27.01.2015 21:30 0,2 C 76 % 1019,9 hPa 0,0 l/m 0,0 km/h (0 Bft) W-SW 256 0 min 0,000 mm 0,0 UV-I 0 W/m -3,5 C 0,2 C 0,0 km/h (0 Bft) 0,00 %
27.01.2015 21:45 0,1 C 76 % 1019,9 hPa 0,0 l/m 0,0 km/h (0 Bft) W 264 0 min 0,000 mm 0,0 UV-I 0 W/m -3,6 C 0,1 C 0,0 km/h (0 Bft) 0,00 %
27.01.2015 22:00 0,1 C 76 % 1020,0 hPa 0,0 l/m 0,4 km/h (0 Bft) SW 236 0 min 0,000 mm 0,0 UV-I 0 W/m -3,6 C 0,1 C 4,0 km/h (1 Bft) 0,00 %
27.01.2015 22:15 0,1 C 76 % 1020,1 hPa 0,0 l/m 4,3 km/h (1 Bft) W-SW 256 0 min 0,000 mm 0,0 UV-I 0 W/m -3,6 C 0,1 C 7,9 km/h (2 Bft) 0,00 %
27.01.2015 22:30 0,0 C 76 % 1020,2 hPa 0,0 l/m 0,0 km/h (0 Bft) W-SW 241 0 min 0,000 mm 0,0 UV-I 0 W/m -3,7 C 0,0 C 0,0 km/h (0 Bft) 0,00 %
27.01.2015 22:45 0,0 C 76 % 1020,3 hPa 0,0 l/m 4,0 km/h (1 Bft) W-SW 255 0 min 0,000 mm 0,0 UV-I 0 W/m -3,7 C 0,0 C 7,9 km/h (2 Bft) 0,00 %
27.01.2015 23:00 0,0 C 76 % 1020,1 hPa 0,0 l/m 0,4 km/h (0 Bft) SO 133 0 min 0,000 mm 0,0 UV-I 0 W/m -3,7 C 0,0 C 4,0 km/h (1 Bft) 0,00 %
27.01.2015 23:15 -0,1 C 76 % 1019,9 hPa 0,0 l/m 0,0 km/h (0 Bft) SW 227 0 min 0,000 mm 0,0 UV-I 0 W/m -3,8 C -0,1 C 0,0 km/h (0 Bft) 0,00 %
27.01.2015 23:30 -0,1 C 76 % 1020,0 hPa 0,0 l/m 0,7 km/h (0 Bft) SW 224 0 min 0,000 mm 0,0 UV-I 0 W/m -3,8 C -0,1 C 4,0 km/h (1 Bft) 0,00 %
27.01.2015 23:45 -0,1 C 76 % 1020,0 hPa 0,0 l/m 0,4 km/h (0 Bft) W-SW 244 0 min 0,000 mm 0,0 UV-I 0 W/m -3,8 C -0,1 C 4,0 km/h (1 Bft) 0,00 %
_ Min-Zeit 01:00 13:45 04:15 - 00:00 - - - - - - 00:00 01:00 00:00 00:00
Minimum _ -2,3 C 67 % 1015,0 hPa - 0,0 km/h (0 Bft) - - - - - - -5,7 C -2,3 C 0,0 km/h (0 Bft) 0,00 %
_ Max-Zeit 13:45 03:00 22:45 00:00 14:15 - - 10:30 00:00 11:45 13:45 10:30 14:00 09:30 00:00
Maximum _ 2,4 C 83 % 1020,3 hPa 0,0 l/m 7,9 km/h
W-SW (2 Bft)
- - 15 min 0,000 mm 2,0 UV-I 295 W/m -2,3 C 2,3 C 11,9 km/h
W-SW (2 Bft)
0,00 %
Durchschnitt _ 0,1 C 78 % 1017,4 hPa #0,0 l/m 1,3 km/h (1 Bft) W-SW - #1:00 h #0,000 mm 1,3 UV-I 110 W/m -3,3 C 0,0 C 2,8 km/h (1 Bft) 0,00 %